SL-12 R/B(AUX MOTOR)

基本信息
目录编号:
32280
目录名称:
SL-12 R/B(AUX MOTOR)
国际标识:
2007-052F
轨道中心:
EARTH
物体状态:
在轨
发射日期:
2007-10-26 UTC
国别:
俄罗斯(独联体) (CIS)
轨道信息
数据来源: 国际轨道数据
星历时间: 2026-07-13T17:25:12+0800
半长轴: 16177.431km
偏心率: 0.5651761
轨道倾角: 65.190°
近地点辐角: 217.612°
升交点赤经: 315.293°
平近点角: 84.922°
近地点: 656.196km
远地点: 18942.392km
周期: 341.290分钟
每日圈数: 4.219281
详细信息
发射场:
TTMTR
轨道高度:
LEO
数据来源:
AOE Integration Group
参考系:
TEME
时间系统:
UTC
历元类型:
SGP4
2D轨道图
3D轨道图
轨道高度分析图
轨道倾角分析图
轨道综合分析图
查看轨道综合分析图